Regional Weather Roundup
Issued by NWS

Home | Current Version | Previous Version | Text Only | Print | Product List | Glossary Off
Versions: 1 2 3 4 5 6 7 8 9 10 11 12 13 14 15 16 17 18 19 20 21 22 23 24 25 26 27 28 29 30 31 32 33 34 35 36 37 38 39 40 41 42 43 44 45 46 47 48 49 50

000
ASUS43 KLSX 290507
RWRMO

WEATHER SUMMARY FOR MISSOURI
NATIONAL WEATHER SERVICE SPRINGFIELD MO
1200 AM CDT WED JUL 29 2015

NOTE: "FAIR" INDICATES FEW OR NO CLOUDS BELOW 12,000 FEET WITH NO
       SIGNIFICANT WEATHER AND/OR OBSTRUCTIONS TO VISIBILITY.
       CURRENT SKY AND/OR WEATHER CONDITIONS ARE NOT AVAILABLE FOR
       CHILLICOTHE AND FARMINGTON.

MOZ001>031-035>038-043-044-053-054-290600-
...NORTHERN AND WESTERN MISSOURI...

CITY           SKY/WX    TMP DP  RH WIND       PRES   REMARKS
KANSAS CTY INT CLOUDY    84  72  67 SW9       29.94R
KANSAS C DTWN  CLEAR     86  73  65 S12       29.91S HX  93
LEE`S SUMMIT   CLEAR     83  72  69 S9        29.95S
ST JOSEPH      MOCLDY    81  76  84 N10       29.94R
CHILLICOTHE      N/A     84  76  76 SE5       29.94S HX  93
KIRKSVILLE     CLOUDY    76  65  68 VRB3      29.99F

$$
MOZ066>068-077>081-088>096-101>105-290600-
...SOUTHWEST MISSOURI...

CITY           SKY/WX    TMP DP  RH WIND       PRES   REMARKS
SPRINGFIELD    CLEAR     80  74  81 CALM      30.01R
JOPLIN         CLEAR     80  74  81 SE6       30.00R

$$
MOZ032>034-039>042-045>050-055>058-069>072-290600-
...CENTRAL MISSOURI...

CITY           SKY/WX    TMP DP  RH WIND       PRES   REMARKS
COLUMBIA       CLEAR     79  76  90 S8        29.97S
JEFFERSON CITY CLEAR     83  76  79 SE5       29.96R HX  91
ROLLA          CLEAR     79  74  84 S3        30.00R
SEDALIA        CLEAR     81  75  82 S6        29.98S
WHITEMAN AFB   CLEAR     79  74  85 S9        29.95S
WARRENSBURG    CLEAR     79  72  78 S6        29.95S
OSAGE BEACH    CLEAR     81  75  83 S3        29.99R

$$
MOZ051-052-059>065-290600-
...EAST CENTRAL MISSOURI...

CITY           SKY/WX    TMP DP  RH WIND       PRES   REMARKS
ST LOUIS INTL  PTCLDY    88  77  69 CALM      29.98R HX 100
SPIRIT OF STL  CLEAR     82  80  94 CALM      29.96R HX  94
ST CHARLES     PTCLDY    83  78  85 CALM      29.95R HX  93

$$
MOZ072>076-082>087-097>100-106>115-290600-
...SOUTH CENTRAL AND SOUTHEAST MISSOURI...

CITY           SKY/WX    TMP DP  RH WIND       PRES   REMARKS
CAPE GIRARDEAU MOCLDY    82  78  88 SE9       29.98R HX  91
FARMINGTON     PTCLDY    79  75  89 CALM      30.05R
POPLAR BLUFF   CLEAR     81  79  94 CALM      29.98R HX  90
WEST PLAINS    CLEAR     77  74  90 CALM      30.05R FOG

$$



USA.gov is the U.S. government's official web portal to all federal, state and local government web resources and services.